OK1UOJ Weather Reports


time (UTC)temp
F
wind
direction
speed
knots
gust
knots
rain 1hr
in
rain 24hr
in
rain mn
in
humidity
%
barometer
mb
20260506201201 56 108 1.7 1.7 0.00 0.00 0.00 10 1006.9
20260506200729 56 83 0.9 1.7 0.00 0.00 0.00 10 1007.0
20260506200724 56 83 0.9 1.7 0.00 0.00 0.00 10 1007.0
20260506200246 56 105 0.9 1.7 0.00 0.00 0.00 10 1007.1
20260506195814 56 132 1.7 3.5 0.00 0.00 0.00 10 1007.2
20260506195809 56 132 1.7 3.5 0.00 0.00 0.00 10 1007.2
20260506195336 56 126 0.9 1.7 0.00 0.00 0.00 10 1007.1
20260506195331 56 126 0.9 1.7 0.00 0.00 0.00 10 1007.1
20260506194855 56 82 1.7 3.5 0.00 0.00 0.00 10 1007.0
20260506194421 56 60 2.6 5.2 0.00 0.00 0.00 10 1006.9
20260506194416 56 60 2.6 5.2 0.00 0.00 0.00 10 1006.9
20260506193944 56 138 1.7 2.6 0.00 0.00 0.00 10 1007.0
20260506193939 56 138 1.7 2.6 0.00 0.00 0.00 10 1007.0
20260506193506 56 136 1.7 3.5 0.00 0.00 0.00 10 1007.0
20260506193502 56 136 1.7 3.5 0.00 0.00 0.00 10 1007.0
20260506193024 56 106 1.7 4.3 0.00 0.00 0.00 10 1007.1
20260506192551 56 23 1.7 3.5 0.00 0.00 0.00 10 1007.1
20260506192547 56 23 1.7 3.5 0.00 0.00 0.00 10 1007.1
20260506192129 56 81 0.9 1.7 0.00 0.00 0.00 10 1007.3
20260506192114 56 81 0.9 1.7 0.00 0.00 0.00 10 1007.3
20260506192109 56 81 0.9 1.7 0.00 0.00 0.00 10 1007.3
20260506191636 56 66 2.6 4.3 0.00 0.00 0.00 10 1007.3
20260506191632 56 66 2.6 4.3 0.00 0.00 0.00 10 1007.3
20260506191159 57 91 1.7 4.3 0.00 0.00 0.00 10 1007.3
20260506191154 57 91 1.7 4.3 0.00 0.00 0.00 10 1007.3
20260506190721 57 83 1.7 4.3 0.00 0.00 0.00 10 1007.4
20260506190717 57 83 1.7 4.3 0.00 0.00 0.00 10 1007.4
20260506185806 56 63 2.6 7.0 0.00 0.00 0.00 10 1007.5
20260506185802 56 63 2.6 7.0 0.00 0.00 0.00 10 1007.5
20260506185324 56 10 2.6 6.1 0.00 0.00 0.00 10 1007.5
20260506184852 56 335 1.7 2.6 0.00 0.00 0.00 10 1007.6
20260506184847 56 335 1.7 2.6 0.00 0.00 0.00 10 1007.6
20260506184414 56 359 2.6 3.5 0.00 0.00 0.00 10 1007.6
20260506184409 56 359 2.6 3.5 0.00 0.00 0.00 10 1007.6
20260506183459 56 327 1.7 2.6 0.00 0.00 0.00 10 1007.6
20260506183454 56 327 1.7 2.6 0.00 0.00 0.00 10 1007.6
20260506182544 56 310 1.7 2.6 0.00 0.00 0.00 10 1007.3
20260506182539 56 310 1.7 2.6 0.00 0.00 0.00 10 1007.3
20260506181630 57 329 1.7 2.6 0.00 0.00 0.00 10 1007.2
20260506181624 57 329 1.7 2.6 0.00 0.00 0.00 10 1007.2
20260506181151 56 344 2.6 3.5 0.00 0.00 0.00 10 1007.3
20260506181147 56 344 2.6 3.5 0.00 0.00 0.00 10 1007.3
20260506180714 57 313 2.6 4.3 0.00 0.00 0.00 10 1007.3
20260506180709 57 313 2.6 4.3 0.00 0.00 0.00 10 1007.3
20260506180236 57 323 4.3 6.1 0.00 0.00 0.00 10 1007.3
20260506180232 57 323 4.3 6.1 0.00 0.00 0.00 10 1007.3
20260506175759 57 323 4.3 5.2 0.00 0.00 0.00 10 1007.3
20260506175322 57 317 3.5 4.3 0.00 0.00 0.00 10 1007.0
20260506175317 57 317 3.5 4.3 0.00 0.00 0.00 10 1007.0
20260506174406 57 330 0.9 1.7 0.00 0.00 0.00 10 1006.7
20260506174401 57 330 0.9 1.7 0.00 0.00 0.00 10 1006.7
20260506173924 57 346 0.9 2.6 0.00 0.00 0.00 10 1006.5
20260506173014 57 334 0.9 1.7 0.00 0.00 0.00 10 1006.6
20260506173009 57 334 0.9 1.7 0.00 0.00 0.00 10 1006.6
20260506172536 57 1 0.9 1.7 0.00 0.00 0.00 10 1006.5
20260506172532 57 1 0.9 1.7 0.00 0.00 0.00 10 1006.5
20260506172054 58 235 0.0 0.9 0.00 0.00 0.00 10 1006.5
20260506171617 58 165 0.0 0.9 0.00 0.00 0.00 10 1006.4
20260506170706 58 72 0.9 1.7 0.00 0.00 0.00 10 1006.4
20260506170702 58 72 0.9 1.7 0.00 0.00 0.00 10 1006.4
20260506170224 58 73 1.7 3.5 0.00 0.00 0.00 10 1006.3
20260506165746 58 84 0.9 2.6 0.00 0.00 0.00 10 1006.3
20260506165309 59 7 1.7 4.3 0.00 0.00 0.00 10 1006.4
20260506164836 59 19 2.6 4.3 0.00 0.00 0.00 10 1006.3
20260506164831 59 19 2.6 4.3 0.00 0.00 0.00 10 1006.3
20260506164358 59 10 1.7 3.5 0.00 0.00 0.00 10 1006.4
20260506164353 59 10 1.7 3.5 0.00 0.00 0.00 10 1006.4
20260506163921 59 350 1.7 2.6 0.00 0.00 0.00 10 1006.5
20260506163916 59 350 1.7 2.6 0.00 0.00 0.00 10 1006.5
20260506163438 60 22 0.9 1.7 0.00 0.00 0.00 10 1006.5
20260506162050 60 359 1.7 4.3 0.00 0.00 0.00 10 1006.7
20260506162045 60 359 1.7 4.3 0.00 0.00 0.00 10 1006.7
20260506161608 60 344 1.7 4.3 0.00 0.00 0.00 10 1006.8
20260506161135 60 327 1.7 4.3 0.00 0.00 0.00 10 1006.9
20260506161130 60 327 1.7 4.3 0.00 0.00 0.00 10 1006.9
20260506160215 61 344 2.6 3.5 0.00 0.00 0.00 10 1007.2
20260506155306 62 318 3.5 4.3 0.00 0.00 0.00 10 1006.8
20260506155300 62 318 3.5 4.3 0.00 0.00 0.00 10 1006.8
20260506154822 63 321 3.5 6.1 0.00 0.00 0.00 10 1006.6
20260506154344 63 308 3.5 4.3 0.00 0.00 0.00 10 1006.4
20260506153911 64 319 3.5 6.1 0.00 0.00 0.00 10 1006.6
20260506153906 64 319 3.5 6.1 0.00 0.00 0.00 10 1006.6
20260506153428 65 334 2.6 5.2 0.00 0.00 0.00 10 1006.5
20260506152955 65 329 1.7 4.3 0.00 0.00 0.00 10 1006.6
20260506152950 65 329 1.7 4.3 0.00 0.00 0.00 10 1006.6
20260506152517 66 339 0.9 1.7 0.00 0.00 0.00 10 1006.6
20260506152513 66 339 0.9 1.7 0.00 0.00 0.00 10 1006.6
20260506151601 66 212 0.9 1.7 0.00 0.00 0.00 10 1006.7
20260506151124 66 180 1.7 2.6 0.00 0.00 0.00 10 1006.7
20260506151119 66 180 1.7 2.6 0.00 0.00 0.00 10 1006.7
20260506150203 66 320 1.7 2.6 0.00 0.00 0.00 10 1006.6
20260506145730 67 344 1.7 2.6 0.00 0.00 0.00 10 1006.6
20260506145725 67 344 1.7 2.6 0.00 0.00 0.00 10 1006.6
20260506144814 67 315 0.9 2.6 0.00 0.00 0.00 10 0.1
20260506144809 67 315 0.9 2.6 0.00 0.00 0.00 10 1006.8
20260506144331 67 309 1.7 3.5 0.00 0.00 0.00 10 1006.9
20260506142942 71 293 0.9 4.3 0.00 0.00 0.00 92 1007.1
20260506142459 71 167 0.9 1.7 0.00 0.00 0.00 83 1007.1
20260506142021 71 183 1.7 2.6 0.00 0.00 0.00 84 1007.1
20260506141543 71 178 2.6 3.5 0.00 0.00 0.00 86 1007.1
20260506141104 71 162 2.6 4.3 0.00 0.00 0.00 91 1007.2
20260506140630 71 182 2.6 3.5 0.00 0.00 0.00 87 1007.2
20260506140626 71 182 2.6 3.5 0.00 0.00 0.00 87 1007.2
20260506140148 71 176 3.5 6.1 0.00 0.00 0.00 83 1007.1
20260506135714 71 167 3.5 7.8 0.00 0.00 0.00 77 1007.1
20260506135709 71 167 3.5 7.8 0.00 0.00 0.00 77 1007.1
20260506135231 71 159 4.3 7.8 0.00 0.00 0.00 70 1007.2
20260506134753 71 153 5.2 8.7 0.00 0.00 0.00 75 1007.3
20260506134315 71 156 6.1 8.7 0.00 0.00 0.00 73 1007.3
20260506132003 71 109 1.7 4.3 0.00 0.00 0.00 76 1007.5
20260506125656 72 131 2.6 3.5 0.00 0.00 0.00 76 1008.0
20260506125651 72 131 2.6 3.5 0.00 0.00 0.00 76 1008.0
20260506125218 0 117 1.7 2.6 0.00 0.00 0.00 1.0
20260506125213 72 117 1.7 2.6 0.00 0.00 0.00 87 1008.1
20260506124256 73 166 1.7 2.6 0.00 0.00 0.00 61 1008.2
20260506123339 74 189 2.6 3.5 0.00 0.00 0.00 59 1008.3
20260506122421 74 209 1.7 2.6 0.00 0.00 0.00 54 1008.3
20260506121948 73 217 2.6 3.5 0.00 0.00 0.00 67 1008.4
20260506121942 73 217 2.6 3.5 0.00 0.00 0.00 67 1008.4
20260506121514 72 187 3.5 5.2 0.00 0.00 0.00 68 1008.4
20260506121509 72 187 3.5 5.2 0.00 0.00 0.00 68 1008.4
20260506121504 72 187 3.5 5.2 0.00 0.00 0.00 68 1008.4
20260506121030 72 169 2.6 4.3 0.00 0.00 0.00 71 1008.4
20260506121025 72 169 2.6 4.3 0.00 0.00 0.00 71 1008.4
20260506115629 73 145 4.3 6.1 0.00 0.00 0.00 58 1008.5
20260506114713 75 216 2.6 3.5 0.00 0.00 0.00 54 1008.5
20260506113759 76 296 1.7 2.6 0.00 0.00 0.00 57 1008.6
20260506113754 76 296 1.7 2.6 0.00 0.00 0.00 57 1008.6
20260506113315 77 228 1.7 4.3 0.00 0.00 0.00 61 1008.6
20260506111439 75 287 1.7 2.6 0.00 0.00 0.00 62 1008.8
20260506111005 75 341 1.7 2.6 0.00 0.00 0.00 71 1008.9
20260506111000 75 341 1.7 2.6 0.00 0.00 0.00 71 1008.9
20260506110521 75 267 0.9 1.7 0.00 0.00 0.00 67 1008.9
20260506110042 76 338 1.7 2.6 0.00 0.00 0.00 59 1008.9
20260506105608 77 339 1.7 2.6 0.00 0.00 0.00 58 1009.0
20260506105603 77 339 1.7 2.6 0.00 0.00 0.00 58 1009.0
20260506105124 76 211 1.7 3.5 0.00 0.00 0.00 63 1009.0
20260506104211 75 329 0.9 1.7 0.00 0.00 0.00 72 10.0
20260506104206 75 329 0.9 1.7 0.00 0.00 0.00 72 1009.1
20260506103253 75 316 1.7 2.6 0.00 0.00 0.00 73 1009.1
20260506103248 75 316 1.7 2.6 0.00 0.00 0.00 73 1009.1
20260506102814 75 291 0.9 2.6 0.00 0.00 0.00 71 1009.4
20260506102809 75 291 0.9 2.6 0.00 0.00 0.00 71 1009.4
20260506102330 75 255 1.7 3.5 0.00 0.00 0.00 83 1009.5
20260506101851 75 241 1.7 3.5 0.00 0.00 0.00 66 1009.4
20260506100454 75 178 1.7 4.3 0.00 0.00 0.00 80 1009.6
20260506100020 74 197 1.7 4.3 0.00 0.00 0.00 80 1009.6
20260506100015 74 197 1.7 4.3 0.00 0.00 0.00 80 1009.6
20260506095541 74 211 1.7 2.6 0.00 0.00 0.00 85 1009.5
20260506095536 74 211 1.7 2.6 0.00 0.00 0.00 85 1009.5
20260506095103 73 205 1.7 3.5 0.00 0.00 0.00 84 1009.5
20260506095057 73 205 1.7 3.5 0.00 0.00 0.00 84 1009.5
20260506094144 73 228 2.6 3.5 0.00 0.00 0.00 84 1009.6
20260506093222 74 188 0.9 1.7 0.00 0.00 0.00 84 1009.5
20260506092309 72 279 2.6 5.2 0.00 0.00 0.00 10 1009.5
20260506092306 72 279 2.6 5.2 0.00 0.00 0.00 10 1009.5
20260506091826 71 237 1.7 4.3 0.00 0.00 0.00 94 1009.5
20260506091352 70 236 0.9 1.7 0.00 0.00 0.00 10 1009.6
20260506091347 70 236 0.9 1.7 0.00 0.00 0.00 10 1009.6
20260506090908 70 225 3.5 4.3 0.00 0.00 0.00 97 1009.6
20260506090430 69 228 2.6 4.3 0.00 0.00 0.00 10 1009.6
20260506085957 68 215 2.6 4.3 0.00 0.00 0.00 10 1009.6
20260506085951 68 215 2.6 4.3 0.00 0.00 0.00 10 1009.6
20260506085040 68 276 1.7 2.6 0.00 0.00 0.00 10 1009.5
20260506085034 68 276 1.7 2.6 0.00 0.00 0.00 10 1009.5
20260506084556 68 284 0.9 1.7 0.00 0.00 0.00 10 1009.5
20260506084123 68 284 1.7 1.7 0.00 0.00 0.00 10 1009.5
20260506084118 68 284 1.7 1.7 0.00 0.00 0.00 10 1009.5
20260506083644 69 276 1.7 2.6 0.00 0.00 0.00 10 1009.5
20260506083639 69 276 1.7 2.6 0.00 0.00 0.00 10 1009.5
20260506083205 68 277 1.7 3.5 0.00 0.00 0.00 10 100.9
20260506083201 68 277 1.7 3.5 0.00 0.00 0.00 10 1009.5
20260506082728 68 224 2.6 4.3 0.00 0.00 0.00 10 1009.4
20260506082722 68 224 2.6 4.3 0.00 0.00 0.00 10 1009.4
20260506080410 69 251 1.7 2.6 0.00 0.00 0.00 10 1009.6
20260506072709 66 278 0.9 2.6 0.00 0.00 0.00 10 1009.7
20260506072704 66 278 0.9 2.6 0.00 0.00 0.00 10 1009.7
20260506072231 64 285 1.7 2.6 0.00 0.00 0.00 10 1009.7
20260506072226 64 285 1.7 2.6 0.00 0.00 0.00 10 1009.7
20260506071315 61 302 1.7 2.6 0.00 0.00 0.00 10 1009.7
20260506071310 61 302 1.7 2.6 0.00 0.00 0.00 10 1009.7
20260506070837 60 332 1.7 4.3 0.00 0.00 0.00 10 1009.8
20260506070832 60 332 1.7 4.3 0.00 0.00 0.00 10 1009.8
20260506070354 61 328 1.7 2.6 0.00 0.00 0.00 10 1009.7
20260506062214 61 234 1.7 3.5 0.00 0.00 0.00 10 1009.5
20260506061259 59 223 2.6 4.3 0.00 0.00 0.00 10 1009.7
20260506051251 55 279 0.0 0.9 0.00 0.00 0.00 10 1009.6
20260506050818 55 280 0.0 0.0 0.00 0.00 0.00 10 1009.5
20260506050813 55 280 0.0 0.0 0.00 0.00 0.00 10 1009.5
20260506050336 55 224 0.9 1.7 0.00 0.00 0.00 10 1009.4
20260506044948 53 145 0.9 1.7 0.00 0.00 0.00 10 1009.5
20260506044944 53 145 0.9 1.7 0.00 0.00 0.00 10 1009.5
20260506044029 53 148 0.0 0.9 0.00 0.00 0.00 10 1009.4
20260506043551 53 135 0.0 0.0 0.00 0.00 0.00 10 1009.3
20260506042637 53 135 0.0 1.7 0.00 0.00 0.00 10 1009.1
20260506042200 52 135 0.9 0.9 0.00 0.00 0.00 10 1009.0
20260506041245 52 135 0.0 0.0 0.00 0.00 0.00 10 1009.0
20260506040330 52 180 0.0 0.0 0.00 0.00 0.00 10 1008.8
20260506035857 52 180 0.0 0.0 0.00 0.00 0.00 10 1008.7
20260506035852 52 180 0.0 0.0 0.00 0.00 0.00 10 1008.7
20260506035420 52 180 0.0 0.0 0.00 0.00 0.00 10 1008.7
20260506035415 52 180 0.0 0.0 0.00 0.00 0.00 10 1008.7
20260506034023 52 225 0.0 0.0 0.00 0.00 0.00 10 1008.7
20260506033546 52 225 0.0 0.0 0.00 0.00 0.00 10 1008.6
20260506033108 53 225 0.0 0.0 0.00 0.00 0.00 10 1008.7
20260506032631 53 213 0.9 1.7 0.00 0.00 0.00 10 1008.7
20260506032154 53 225 1.7 1.7 0.00 0.00 0.00 10 1008.7
20260506031716 53 225 1.7 1.7 0.00 0.00 0.00 10 1008.7
20260506031244 53 225 1.7 1.7 0.00 0.00 0.00 10 1008.8
20260506031239 53 225 1.7 1.7 0.00 0.00 0.00 10 1008.8
20260506025852 53 225 1.7 2.6 0.00 0.00 0.00 10 1008.6
20260506025414 53 225 1.7 2.6 0.00 0.00 0.00 10 1008.6
20260506025410 53 225 1.7 2.6 0.00 0.00 0.00 10 1008.6
20260506024937 53 228 1.7 2.6 0.00 0.00 0.00 10 1008.6
20260506024933 53 228 1.7 2.6 0.00 0.00 0.00 10 1008.6
20260506024455 53 225 0.9 2.6 0.00 0.00 0.00 10 1008.6
20260506024022 53 225 0.9 1.7 0.00 0.00 0.00 10 1008.4
20260506024017 53 225 0.9 1.7 0.00 0.00 0.00 10 1008.4
20260506023540 53 225 1.7 1.7 0.00 0.00 0.00 10 1008.3
20260506022630 53 225 1.7 1.7 0.00 0.00 0.00 10 1008.3
20260506022625 53 225 1.7 1.7 0.00 0.00 0.00 10 1008.3
20260506022148 53 225 1.7 1.7 0.00 0.00 0.00 10 1008.2
20260506021715 53 221 0.9 1.7 0.00 0.00 0.00 10 1008.1
20260506021711 53 221 0.9 1.7 0.00 0.00 0.00 10 1008.1
20260506021233 54 180 0.9 1.7 0.00 0.00 0.00 10 1008.0
20260506020756 54 203 0.9 1.7 0.00 0.00 0.00 10 1008.2
20260506020323 54 190 1.7 1.7 0.00 0.00 0.00 10 1008.3
20260506020319 54 190 1.7 1.7 0.00 0.00 0.00 10 1008.3
20260506015841 54 212 1.7 2.6 0.00 0.00 0.00 10 1008.2
20260506015404 55 222 1.7 1.7 0.00 0.00 0.00 10 1008.2
20260506014454 55 225 1.7 1.7 0.00 0.00 0.00 10 1008.3
20260506014449 55 225 1.7 1.7 0.00 0.00 0.00 10 1008.3
20260506014017 55 225 1.7 2.6 0.00 0.00 0.00 10 1008.4
20260506014011 55 225 1.7 2.6 0.00 0.00 0.00 10 1008.4
20260506013534 56 242 0.9 1.7 0.00 0.00 0.00 10 1008.2
20260506013057 56 328 2.6 5.2 0.00 0.00 0.00 10 1007.8
20260506012142 56 307 0.9 1.7 0.00 0.00 0.00 10 1008.2
20260506011709 56 255 0.9 1.7 0.00 0.00 0.00 10 1008.3
20260506011704 56 255 0.9 1.7 0.00 0.00 0.00 10 1008.3
20260506011227 56 223 0.0 0.0 0.00 0.00 0.00 10 1008.2
20260506010754 56 269 0.0 1.7 0.00 0.00 0.00 10 1007.9
20260506010749 56 269 0.0 1.7 0.00 0.00 0.00 10 1007.9
20260506010317 56 289 0.9 2.6 0.00 0.00 0.00 10 1007.8
20260506010312 56 289 0.9 2.6 0.00 0.00 0.00 10 1007.8
20260506005834 56 296 0.9 1.7 0.00 0.00 0.00 10 1007.9
20260506005357 56 285 0.0 0.9 0.00 0.00 0.00 10 1007.9
20260506004924 56 235 0.9 1.7 0.00 0.00 0.00 10 1007.9
20260506004919 56 235 0.9 1.7 0.00 0.00 0.00 10 1007.9
20260506004442 56 252 0.9 1.7 0.00 0.00 0.00 10 1007.9
20260506004009 56 279 0.9 1.7 0.00 0.00 0.00 10 1007.9
20260506004004 56 279 0.9 1.7 0.00 0.00 0.00 10 1007.9
20260506003527 57 306 0.9 1.7 0.00 0.00 0.00 10 1007.7
20260506003049 57 260 0.9 1.7 0.00 0.00 0.00 10 1007.7
20260506002612 57 229 0.9 2.6 0.00 0.00 0.00 10 1007.7
20260506001702 56 221 2.6 2.6 0.00 0.00 0.00 10 1007.8
20260506001657 56 221 2.6 2.6 0.00 0.00 0.00 10 1007.8
20260505235832 56 138 2.6 3.5 0.00 0.00 0.00 10 1007.8
20260505235827 56 138 2.6 3.5 0.00 0.00 0.00 10 1007.8
20260505235350 56 141 2.6 4.3 0.00 0.00 0.00 10 1007.7
20260505234917 55 138 1.7 2.6 0.00 0.00 0.00 10 1007.8
20260505234912 55 138 1.7 2.6 0.00 0.00 0.00 10 1007.8
20260505234435 55 141 1.7 2.6 0.00 0.00 0.00 10 1007.8
20260505234002 54 129 1.7 2.6 0.00 0.00 0.00 10 1007.8
20260505233957 54 129 1.7 2.6 0.00 0.00 0.00 10 1007.8
20260505232605 54 135 2.6 4.3 0.00 0.00 0.00 10 1007.7
20260505231650 54 135 2.6 4.3 0.00 0.00 0.00 10 1007.8
20260505230740 56 132 1.7 3.5 0.00 0.00 0.00 10 1007.8
20260505230735 56 132 1.7 3.5 0.00 0.00 0.00 10 1007.8
20260505225825 57 135 1.7 2.6 0.00 0.00 0.00 10 1007.8
20260505225820 57 135 1.7 2.6 0.00 0.00 0.00 10 1007.8
20260505225347 57 132 1.7 2.6 0.00 0.00 0.00 10 1007.7
20260505225344 57 132 1.7 2.6 0.00 0.00 0.00 10 1007.7
20260505224427 57 26 0.0 0.9 0.00 0.00 0.00 10 1007.8
20260505223955 57 233 0.9 2.6 0.00 0.00 0.00 88
20260505223950 57 233 0.9 2.6 0.00 0.00 0.00 10 1007.9
20260505223512 57 170 1.7 2.6 0.00 0.00 0.00 10 1007.7
20260505223035 57 135 3.5 4.3 0.00 0.00 0.00 10 1006.8
20260505221642 57 135 4.3 6.1 0.00 0.00 0.00 10 1006.5
20260505221205 57 135 4.3 5.2 0.00 0.00 0.00 10 1006.5
20260505220727 57 132 4.3 6.1 0.00 0.00 0.00 10 1006.5
20260505220250 57 132 4.3 6.1 0.00 0.00 0.00 10 1006.5
20260505215812 57 125 3.5 4.3 0.00 0.00 0.00 10 1006.5
20260505215335 56 128 2.6 2.6 0.00 0.00 0.00 10 1006.5
20260505214857 56 129 1.7 2.6 0.00 0.00 0.00 10 1006.6
20260505213027 56 135 2.6 2.6 0.00 0.00 0.00 10 1006.8
20260505212550 57 135 2.6 2.6 0.00 0.00 0.00 10 1006.8
20260505211635 57 132 3.5 5.2 0.00 0.00 0.00 10 1006.7
20260505211157 57 132 3.5 4.3 0.00 0.00 0.00 10 1006.8
20260505210720 56 135 3.5 4.3 0.00 0.00 0.00 10 1006.8
20260505210243 56 135 3.5 4.3 0.00 0.00 0.00 10 1006.8
20260505205805 57 135 3.5 4.3 0.00 0.00 0.00 10 1006.8
20260505205327 57 135 2.6 3.5 0.00 0.00 0.00 10 1006.8
20260505204850 58 135 3.5 4.3 0.00 0.00 0.00 10 1006.9
20260505204412 58 132 3.5 4.3 0.00 0.00 0.00 10 1006.8
20260505203935 59 135 3.5 4.3 0.00 0.00 0.00 10 1006.9
20260505203502 60 135 4.3 4.3 0.00 0.00 0.00 10 1006.8
20260505203457 60 135 4.3 4.3 0.00 0.00 0.00 10 1006.8
20260505202547 58 135 3.5 4.3 0.00 0.00 0.00 10 1006.7
20260505202542 58 135 3.5 4.3 0.00 0.00 0.00 10 1006.7